User: anonymous   Login
Location: Anglesey
(53.1800°N, 4.2200°W)
Time: 21:18:22
(UTC+01:00)
Language:

N. Korean satellite - Orbit

View from above orbital plane
View from above orbital plane
View from above satellite
View from above satellite

Ground track
Ground track

The orbit data is extracted from the following two-line orbital elements,

1 39026U 12072A   18114.93384894 +.00001535 +00000-0 +60051-4 0  9995
2 39026 097.2125 127.1123 0040350 149.8633 210.4940 15.26575757297470
Epoch (UTC): 24 April 2018 22:24:44
Eccentricity: 0.0040350
inclination: 97.2125°
perigee height: 458 km
apogee height: 514 km
right ascension of ascending node: 127.1123°
argument of perigee: 149.8633°
revolutions per day: 15.26575757
mean anomaly at epoch: 210.4940°
orbit number at epoch: 29747

The dashed part of the orbit path shows where the satellite is in the earth's shadow,  

DLR